Location: Pl�tzky
(52.0521°N, 11.8020°E)
Time: 21:35:14
(UTC+00:00)

H-2A R/B - Pass Details

Date: 22 November 2019
Orbit: 733 x 837 km, 98.3° (Epoch: 07 December)

Event Time Altitude Azimuth Distance (km) Brightness Sun altitude
Exits shadow 17:11:59 15° 28° (NNE) 2,081 3.9 -17.7°
Drops below altitude 10° 17:13:26 10° 13° (NNE) 2,383 4.3 -18.0°
Sets 17:16:28 0° 355° (N) 3,297 5.2 -18.4°
